This demonstration page uses our WeatherBlox Daily Observations layout. Learn more.

Left ArrowRight Arrow

41.86663, -103.66717

Hourly Observations for April 20, 2018

Temp ( °F °C ) Dew Point ( °F °C ) Humidity (%) Winds ( mph kmh ) Pressure ( in mb ) Visibility ( mi km ) Precip ( " mm )
12:53 am 00:53 Clear 44 6.7 27 -2.8 51 51 SE 28 44 30.05 1018 10 16 N/A
1:53 am 01:53 Clear 42 5.6 27 -2.8 55 55 ESE 23 37 30.04 1017 10 16 N/A
2:53 am 02:53 Clear 41 5 28 -2.2 60 60 ESE 22 35 30.03 1017 10 16 N/A
3:53 am 03:53 Clear 40 4.4 28 -2.2 63 63 ESE 18 30 30.03 1017 10 16 N/A
4:53 am 04:53 Clear 40 4.4 28 -2.2 63 63 ESE 22 35 30.02 1017 10 16 N/A
5:53 am 05:53 Clear 40 4.4 29 -1.7 65 65 ESE 16 26 30.03 1017 10 16 N/A
6:53 am 06:53 Sunny 40 4.4 29 -1.7 65 65 ESE 14 22 30.04 1017 10 16 N/A
7:53 am 07:53 Sunny 40 4.4 29 -1.7 65 65 ESE 16 26 30.07 1018 10 16 N/A
8:53 am 08:53 Sunny 43 6.1 31 -0.6 63 63 ESE 16 26 30.05 1018 10 16 N/A
9:53 am 09:53 Cloudy 45 7.2 32 undefined 61 61 SE 22 35 30.05 1018 10 16 N/A
10:53 am 10:53 Cloudy 44 6.7 33 0.6 65 65 ESE 23 37 30.07 1018 10 16 N/A
11:53 am 11:53 Cloudy 40 4.4 33 0.6 77 77 ESE 28 44 30.11 1020 10 16 N/A
12:27 pm 12:27 Cloudy 38 3.3 34 1.1 86 86 ESE 23 37 30.15 1021 8 13 N/A
12:39 pm 12:39 Cloudy 38 3.3 34 1.1 86 86 ESE 22 35 30.15 1021 9 14 N/A
12:53 pm 12:53 Cloudy 39 3.9 35 1.7 86 86 ESE 21 33 30.09 1019 9 14 N/A
1:23 pm 13:23 Cloudy 38 3.3 35 1.7 89 89 SE 20 31 30.12 1020 10 16 N/A
1:53 pm 13:53 Cloudy 39 3.9 35 1.7 86 86 ESE 24 39 30.09 1019 10 16 N/A
2:12 pm 14:12 Cloudy 39 3.9 35 1.7 86 86 ESE 25 41 30.12 1020 10 16 N/A
2:26 pm 14:26 Cloudy 39 4 36 2 87 87 ESE 28 44 30.12 1020 10 16 N/A
2:28 pm 14:28 Cloudy 39 3.9 35 1.7 86 86 ESE 26 43 30.12 1020 10 16 N/A
2:38 pm 14:38 Cloudy 39 4 36 2 87 87 ESE 26 43 30.12 1020 10 16 N/A
2:44 pm 14:44 Cloudy 39 3.9 36 2.2 89 89 ESE 28 44 30.12 1020 10 16 N/A
2:53 pm 14:53 Cloudy 39 3.9 36 2.2 89 89 ESE 26 43 30.09 1019 10 16 N/A
3:12 pm 15:12 Cloudy 39 3.9 36 2.2 89 89 ESE 22 35 30.12 1020 10 16 N/A
3:53 pm 15:53 Cloudy 39 3.9 36 2.2 89 89 SE 22 35 30.11 1020 10 16 N/A
4:50 pm 16:50 Cloudy 39 4 36 2 87 87 ESE 18 30 30.15 1021 9 14 N/A
4:53 pm 16:53 Cloudy 39 3.9 36 2.2 89 89 ESE 18 30 30.12 1020 8 13 N/A
5:15 pm 17:15 Cloudy with Mist and Fog 38 3.3 37 2.8 97 97 ESE 21 33 30.15 1021 4 6 N/A
5:53 pm 17:53 Cloudy 39 3.9 37 2.8 93 93 SE 16 26 30.14 1021 10 16 N/A
6:25 pm 18:25 Cloudy with Light Rain 38 3.3 38 3.3 100 100 SE 15 24 30.18 1022 2 3 N/A
6:32 pm 18:32 Cloudy with Light Rain 38 3.3 38 3.3 100 100 ESE 16 26 30.18 1022 2 3 N/A
6:39 pm 18:39 Cloudy with Light Rain 38 3.3 38 3.3 100 100 ESE 16 26 30.18 1022 2 3 N/A
6:50 pm 18:50 Cloudy with Light Rain 37 3 37 3 100 100 ESE 18 30 30.21 1023 2 3 N/A
6:53 pm 18:53 Cloudy with Light Rain 38 3.3 38 3.3 100 100 ESE 18 30 30.16 1021 2 3 N/A
7:05 pm 19:05 Cloudy with Light Rain 37 2.8 37 2.8 100 100 ESE 17 28 30.21 1023 2 3 0.01 0.25
7:12 pm 19:12 Cloudy with Light Rain 37 3 37 3 100 100 ESE 18 30 30.21 1023 3 4 N/A
7:38 pm 19:38 Cloudy with Light Rain 37 3 N/A N/A ESE 16 26 30.21 1023 3 5 N/A
7:53 pm 19:53 Cloudy with Light Rain 37 3 N/A N/A ESE 14 22 30.17 1022 3 5 0.02 0.51
8:20 pm 20:20 Cloudy with Light Rain 37 3 N/A N/A ESE 14 22 30.24 1024 4 6 N/A
8:31 pm 20:31 Cloudy with Mist and Fog 37 3 N/A N/A ESE 14 22 30.24 1024 3 5 N/A
8:53 pm 20:53 Cloudy with Mist and Fog 37 3 N/A N/A ESE 16 26 30.20 1023 3 5 N/A
9:53 pm 21:53 Cloudy with Light Rain 37 3 N/A N/A ESE 18 30 30.20 1023 4 6 N/A
10:53 pm 22:53 Cloudy with Haze 37 3 N/A N/A ESE 17 28 30.21 1023 4 6 0.01 0.25
11:16 pm 23:16 Cloudy with Haze 37 3 N/A N/A ESE 15 24 30.27 1025 5 8 N/A
11:53 pm 23:53 Cloudy with Light Rain 36 2 N/A N/A SE 14 22 30.25 1024 4 6 N/A

Powered by AerisWeather